This is the latest recevied weather packets stored in our database for station/object WC4PEM-11. If no packets are shown the sender has not sent any weather packets the latest 1 day(s).
| Time | Temp. | Humidity | Pressure | Rain* | Wind** | Luminosity | Snow |
|---|---|---|---|---|---|---|---|
| 1777960685 | 18.89° C | 89% | 1015.2 hPa | 0 mm | 2.68 m/s, 82° | - | - |
| 1777960450 | 18.89° C | 89% | 1015.8 hPa | 0 mm | 2.24 m/s, 51° | - | - |
| 1777960385 | 18.89° C | 90% | 1015.4 hPa | 0 mm | 3.13 m/s, 64° | - | - |
| 1777960085 | 18.89° C | 90% | 1015.4 hPa | 0 mm | 3.13 m/s, 68° | - | - |
| 1777959785 | 18.89° C | 90% | 1015.5 hPa | 0 mm | 2.68 m/s, 65° | - | - |
| 1777959485 | 18.89° C | 90% | 1015.6 hPa | 0 mm | 2.68 m/s, 59° | - | - |
| 1777959185 | 18.89° C | 89% | 1015.5 hPa | 0 mm | 2.68 m/s, 56° | - | - |
| 1777958885 | 18.89° C | 90% | 1015.7 hPa | 0 mm | 2.24 m/s, 66° | - | - |
| 1777958585 | 18.89° C | 89% | 1015.8 hPa | 0 mm | 2.24 m/s, 74° | - | - |
| 1777958285 | 18.89° C | 89% | 1015.8 hPa | 0 mm | 2.24 m/s, 56° | - | - |
| 1777957985 | 18.89° C | 89% | 1015.8 hPa | 0 mm | 2.24 m/s, 51° | - | - |
| 1777957897 | 18.89° C | 89% | 1015.7 hPa | 0 mm | 2.24 m/s, 65° | - | - |
| 1777957685 | 18.89° C | 89% | 1015.7 hPa | 0 mm | 2.24 m/s, 65° | - | - |
| 1777957385 | 18.89° C | 89% | 1016.1 hPa | 0 mm | 2.24 m/s, 51° | - | - |
| 1777957085 | 18.89° C | 89% | 1016.1 hPa | 0 mm | 2.24 m/s, 68° | - | - |
| 1777956785 | 18.89° C | 89% | 1016 hPa | 0 mm | 2.24 m/s, 56° | - | - |
| 1777956485 | 18.89° C | 89% | 1016 hPa | 0 mm | 2.24 m/s, 53° | - | - |
| 1777956185 | 18.89° C | 88% | 1016 hPa | 0 mm | 2.24 m/s, 57° | - | - |
| 1777955885 | 18.89° C | 89% | 1016 hPa | 0 mm | 2.24 m/s, 57° | - | - |
| 1777955586 | 18.89° C | 88% | 1016 hPa | 0 mm | 2.24 m/s, 55° | - | - |
| 1777955429 | 18.89° C | 88% | 1016.1 hPa | 0 mm | 2.24 m/s, 67° | - | - |
| 1777955286 | 18.89° C | 88% | 1016.1 hPa | 0 mm | 2.24 m/s, 67° | - | - |
| 1777955245 | 18.89° C | 88% | 1016.1 hPa | 0 mm | 1.79 m/s, 39° | - | - |
| 1777954986 | 18.89° C | 88% | 1016.1 hPa | 0 mm | 1.79 m/s, 39° | - | - |
* Rain latest hour (hover to see other rain measurements)
** Current wind speed in m/s (hover to see current wind gust speed)